COSMOS 1779 (GLONASS)

Satellite information

Favourite Embed

Satellite Type and Status

PAYLOADIN ORBIT

Key statistics

Satellite COSMOS 1779 (GLONASS) at a glance.

Uptime

14234

Days in orbit

Revolutions

≈ 2.1

Per day

Orbit

MEO

Medium Earth Orbit

Inclination

64.7

Latest

Satellite identification and parameters

Extended collection of information and parameters for COSMOS 1779 (GLONASS).

Object identification

Identified? True

Debris? False

Object name: COSMOS 1779 (GLONASS)

International designator: 1986-071B

Object number (NORAD): 16962

Object ID (CCSDS): 16962

Country: COMMONWEALTH OF INDEPENDENT STATES (CIS)

Current information (Y/N): Y

RCS size: LARGE

Orbital parameters

Period: 675.73 minutes

Inclination: 64.7267 deg

SMA: 25507.945 km

Apoapsis: 19162.885 km

Periapsis: 19096.736 km

RAAN: 82.4542 deg

Eccentricy: 0.00129664

Argument of periapsis: 41.9469 deg

Mean anomaly: 149.3757 deg

Mean motion: 2.13102995 rev/day

Mean motion (dot): -0.00000006 rev/day2

B* drag term: 0.0 1/REarth

Two-line elements (TLE)

Creation date: Sept. 4, 2025, 10:13 a.m.

Reference frame: TEME

Reference center: EARTH

Epoch: Aug. 28, 2025, 6:25 a.m. UTC

TLE line 0: 0 COSMOS 1779 (GLONASS)

TLE line 1: 1 16962U 86071B 25240.26792253 -.00000006 00000-0 00000-0 0 9992

TLE line 2: 2 16962 64.7267 82.4542 0012966 41.9469 149.3757 2.13102995303004

Live tracking on map

Real-time ground track for satellite COSMOS 1779 (GLONASS).

In-orbit conjunctions

There are no conjunctions computed for COSMOS 1779 (GLONASS), at the moment. Check back to stay up to date, as we update our databases every day.

Go to all conjunctions

Associated space launch

GLONASS navigation satellites

COSMOS 1779 (GLONASS) was lifted into orbit during the mission ‘Proton | Uragan 14 to 16’, on board a Proton space rocket.

The launch took place on Sept. 16, 1986, 11:38 a.m. from 200/40.

For more information about the launch, click the button.

Launch to space Proton | Uragan 14 to 16
Proton | Uragan 14 to 16

Agency: N/A

Status: Launch Successful

Launch date: Sept. 16, 1986, 11:38 a.m. UTC

Rocket: Proton

Launch pad: 200/40

Location: Baikonur Cosmodrome, Republic of Kazakhstan

...

Latest news about this satellite

There are no fresh news available about this satellite. Check back as we update our databases every day.


Newsletter sign-up

Weekly statistics, charts and insights to help you stay on top of the space industry.